Location: Unspecified
(40.4667°N, 0.0000°E)
Time: 03:04:11
(UTC+00:00)

ISS - Pass Details

Date: 22 May 2019
Orbit: 411 x 421 km, 51.6° (Epoch: 20 October)

Event Time Altitude Azimuth Distance (km) Brightness Sun altitude
Rises 22:02:07 0° 298° (WNW) 2,374 1.0 -23.5°
Reaches altitude 10° 22:05:12 10° 329° (NNW) 1,515 0.2 -23.8°
Maximum altitude 22:06:48 13° 357° (N) 1,362 -0.4 -23.9°
Drops below altitude 10° 22:08:24 10° 25° (NNE) 1,520 -0.5 -24.1°
Enters shadow 22:11:20 - 55° (NE) 2,332 0.1 -24.3°
